[[{"header":{"parameterUnit":"m.s-1","parameterCategory":1,"la1":30.2991,"la2":30.254,"lo1":-89.0895,"lo2":-89.0444,"dy":0.0017,"dx":0.0017,"nx":28,"ny":28,"refTime":"2025-06-15T09:00:00:Z","depth":0,"parameterNumber":2,"parameterNumberName":"U-component_of_WINDS"},"data":[0,0,0,0,0,0,0,0,0,0,0,0,0,0,0,0,0,0,0,0,0,0,0,0,0,0,0,0,0,0,0,0,0,0,0,0,0,0,0,0,0,0,0,0,0,0,0,0,0,0,0,0,0,0,0,0,0,0,-0.1316,-0.1315,0,-0.1228,-0.1227,-0.1226,-0.117,-0.117,-0.1169,-0.1169,-0.1076,-0.1074,-0.1072,0,0,0,0,0,0,0,0,0,0,0,0,0,-0.1436,-0.1434,-0.1316,-0.1315,-0.1314,-0.1228,-0.1226,-0.1225,-0.117,-0.1169,-0.1169,-0.1169,-0.1077,-0.1074,-0.1072,0,0,0,0,0,0,0,0,0,0,0,0,0,-0.1369,-0.1433,-0.1316,-0.1276,-0.1271,-0.1228,-0.1226,-0.1225,-0.117,-0.1169,-0.1169,-0.1169,-0.1078,-0.1075,-0.1071,-0.106,0,0,-0.1061,-0.106,0,0,0,0,0,0,0,0,-0.1373,-0.1365,-0.1283,-0.1279,-0.1274,-0.1209,-0.1235,-0.117,-0.117,-0.1208,-0.1169,-0.1168,-0.1121,-0.1114,-0.1098,-0.1056,-0.1052,-0.1061,-0.1059,-0.1058,-0.1057,0,0,0,0,0,0,0,-0.1378,-0.1368,-0.1281,-0.1282,-0.1276,-0.1262,-0.1252,-0.1222,-0.1168,-0.1205,-0.1201,-0.1191,-0.1118,-0.1101,-0.1096,-0.1051,-0.1061,-0.1058,-0.1056,-0.1055,-0.0995,-0.0996,0,0,0,0,0,0,-0.1389,-0.1373,-0.1284,-0.1278,-0.1323,-0.126,-0.1249,-0.123,-0.1168,-0.1158,-0.1192,-0.1189,-0.1107,-0.1099,-0.1092,-0.1076,-0.1058,-0.1055,-0.1053,-0.0995,-0.0996,-0.0996,0,0,0,0,0,0,-0.1392,-0.1382,-0.1287,-0.1324,-0.1311,-0.1258,-0.1238,-0.1229,-0.1212,-0.1158,-0.1148,-0.1185,-0.1107,-0.1097,-0.1069,-0.1072,-0.1053,-0.105,-0.0995,-0.0995,-0.0996,-0.1043,0,0,0,0,0,0,-0.1395,-0.1383,-0.1379,-0.1325,-0.1309,-0.1266,-0.1238,-0.1227,-0.1207,-0.1203,-0.1149,-0.114,-0.1105,-0.1074,-0.1066,-0.1067,-0.1048,-0.0994,-0.0995,-0.0996,-0.1041,-0.1045,-0.1049,0,0,0,0,0,-0.14,-0.1395,-0.1379,-0.1368,-0.1303,-0.1267,-0.1258,-0.1219,-0.1208,-0.1203,-0.1168,-0.1142,-0.1073,-0.1072,-0.1062,-0.1062,-0.0994,-0.0995,-0.0996,-0.1039,-0.1044,-0.1049,0,0,0,0,0,0,-0.145,-0.1387,-0.1368,-0.1346,-0.1312,-0.1257,-0.125,-0.1226,-0.1194,-0.1191,-0.1143,-0.1132,-0.1109,-0.1082,-0.1082,-0.1048,-0.103,-0.1029,-0.1067,-0.1071,-0.1075,-0.1082,-0.1045,0,0,0,0,0,-0.1458,-0.1435,-0.1381,-0.1366,-0.135,-0.1303,-0.1286,-0.1259,-0.1222,-0.1207,-0.117,-0.1135,-0.1105,-0.1086,-0.1056,-0.1037,-0.1024,-0.1032,-0.1036,-0.1039,-0.1039,-0.1027,-0.103,-0.0999,-0.0999,-0.0999,0,0,-0.1475,-0.1438,-0.1426,-0.1375,-0.1346,-0.1322,-0.1291,-0.1267,-0.1249,-0.1203,-0.1175,-0.1147,-0.1104,-0.1081,-0.1068,-0.1058,-0.1045,-0.104,-0.1043,-0.1041,-0.1028,-0.1031,-0.1034,-0.0999,-0.0999,-0.0999,0,0,-0.1495,-0.1464,-0.1449,-0.142,-0.1377,-0.1345,-0.1342,-0.1291,-0.1271,-0.1242,-0.1207,-0.1184,-0.1134,-0.1105,-0.1084,-0.1093,-0.1067,-0.1084,-0.1104,-0.1093,-0.1096,-0.1098,-0.1102,-0.1103,-0.1084,-0.1084,-0.1084,0,-0.1521,-0.1485,-0.1444,-0.1422,-0.1401,-0.1359,-0.1343,-0.1317,-0.1265,-0.1252,-0.124,-0.1177,-0.1145,-0.1115,-0.1117,-0.1101,-0.1095,-0.109,-0.1099,-0.1101,-0.1102,-0.1105,-0.1106,-0.1086,-0.1086,-0.1086,-0.1086,0,-0.152,-0.1495,-0.1488,-0.144,-0.1418,-0.1399,-0.1355,-0.1338,-0.1313,-0.1283,-0.1254,-0.1214,-0.1176,-0.1166,-0.1141,-0.1132,-0.1127,-0.1108,-0.1089,-0.1108,-0.111,-0.1111,-0.109,-0.1089,-0.1088,-0.1088,0,0,-0.1569,-0.1499,-0.1497,-0.1475,-0.1424,-0.1404,-0.1383,-0.1346,-0.1332,-0.1298,-0.1279,-0.1238,-0.122,-0.1196,-0.1167,-0.1158,-0.1168,-0.114,-0.1138,-0.1147,-0.1157,-0.1172,-0.1174,-0.1151,-0.1151,-0.1151,-0.116,0,-0.1581,-0.1543,-0.1505,-0.148,-0.1457,-0.1417,-0.1398,-0.1365,-0.1336,-0.1312,-0.1279,-0.1252,-0.123,-0.1215,-0.1204,-0.117,-0.117,-0.1168,-0.1133,-0.1132,-0.1146,-0.1175,-0.1191,-0.1202,-0.1161,-0.1161,-0.1161,0,-0.159,-0.1559,-0.1532,-0.1484,-0.1472,-0.1457,-0.142,-0.1397,-0.1358,-0.1338,-0.1312,-0.1282,-0.1257,-0.1241,-0.1207,-0.1207,-0.119,-0.1171,-0.117,-0.1166,-0.1149,-0.1172,-0.1204,-0.1206,-0.1162,-0.1162,-0.1162,0,-0.163,-0.1581,-0.1558,-0.154,-0.1483,-0.1474,-0.1449,-0.141,-0.139,-0.1357,-0.1344,-0.1309,-0.129,-0.1263,-0.1224,-0.1215,-0.1194,-0.1174,-0.1177,-0.1178,-0.1175,-0.1176,-0.1205,-0.1163,-0.1163,-0.1163,-0.1163,0,-0.1648,-0.1633,-0.1575,-0.1562,-0.1544,-0.1501,-0.1484,-0.1456,-0.1421,-0.1401,-0.1363,-0.1345,-0.1294,-0.127,-0.1239,-0.1216,-0.1207,-0.119,-0.1182,-0.1194,-0.1196,-0.1183,-0.1181,-0.1163,-0.1163,-0.1163,-0.1163,0,-0.1689,-0.165,-0.1623,-0.1571,-0.1558,-0.1547,-0.1502,-0.1487,-0.1457,-0.1432,-0.1423,-0.1375,-0.1344,-0.1302,-0.1258,-0.1237,-0.1219,-0.1205,-0.1232,-0.1228,-0.1233,-0.1234,-0.1256,-0.1257,-0.1214,-0.1214,-0.1214,0,-0.1704,-0.1692,-0.1639,-0.1623,-0.1601,-0.1575,-0.1555,-0.1512,-0.1492,-0.1447,-0.1438,-0.1404,-0.1375,-0.1328,-0.1289,-0.1255,-0.1241,-0.1251,-0.1236,-0.1248,-0.1242,-0.1244,-0.1243,-0.1255,-0.1256,-0.1257,-0.1257,0,-0.1735,-0.1716,-0.1689,-0.1655,-0.1633,-0.1603,-0.1573,-0.1562,-0.1512,-0.1492,-0.146,-0.1438,-0.1393,-0.1361,-0.1322,-0.1296,-0.1268,-0.1262,-0.1261,-0.1273,-0.129,-0.1282,-0.1243,-0.1262,-0.1261,-0.1261,-0.1261,-0.1261,-0.1764,-0.1752,-0.1713,-0.1684,-0.1656,-0.1628,-0.1612,-0.1579,-0.1553,-0.1514,-0.149,-0.146,-0.142,-0.1365,-0.1341,-0.1316,-0.1305,-0.1303,-0.1303,-0.1304,-0.1308,-0.1293,-0.1308,-0.1308,-0.1308,-0.1308,-0.1308,0,-0.1794,-0.1767,-0.1741,-0.1699,-0.1676,-0.1653,-0.1617,-0.16,-0.1574,-0.154,-0.1513,-0.1477,-0.1445,-0.1403,-0.1368,-0.1357,-0.1343,-0.1349,-0.135,-0.1344,-0.1319,-0.1324,-0.136,-0.136,-0.136,-0.136,-0.136,-0.136,-0.1807,-0.1785,-0.1761,-0.1725,-0.1698,-0.1669,-0.1651,-0.1625,-0.1598,-0.156,-0.1533,-0.1506,-0.1469,-0.1431,-0.1401,-0.1389,-0.1378,-0.1388,-0.1373,-0.1351,-0.1346,-0.1341,-0.1346,-0.1386,-0.1386,-0.14,-0.14,-0.14]},{"header":{"parameterUnit":"m.s-1","parameterCategory":1,"la1":30.2991,"la2":30.254,"lo1":-89.0895,"lo2":-89.0444,"dy":0.0017,"dx":0.0017,"nx":28,"ny":28,"refTime":"2025-06-15T09:00:00:Z","depth":0,"parameterNumber":3,"parameterNumberName":"V-component_of_WINDS"},"data":[0,0,0,0,0,0,0,0,0,0,0,0,0,0,0,0,0,0,0,0,0,0,0,0,0,0,0,0,0,0,0,0,0,0,0,0,0,0,0,0,0,0,0,0,0,0,0,0,0,0,0,0,0,0,0,0,0,0,6.1079,6.108,0,6.117,6.1171,6.1172,6.1123,6.112,6.1118,6.1115,6.1205,6.121,6.1214,0,0,0,0,0,0,0,0,0,0,0,0,0,6.0857,6.0861,6.1078,6.108,6.1081,6.117,6.1171,6.1172,6.1123,6.112,6.1117,6.1114,6.1204,6.1209,6.1215,0,0,0,0,0,0,0,0,0,0,0,0,0,6.0951,6.0863,6.1078,6.1067,6.1067,6.117,6.1171,6.1173,6.1124,6.112,6.1116,6.1113,6.1202,6.1209,6.1215,6.1333,0,0,6.1237,6.124,0,0,0,0,0,0,0,0,6.0946,6.0959,6.1068,6.1068,6.1068,6.1131,6.1126,6.1226,6.1125,6.1102,6.1115,6.1111,6.1183,6.1192,6.1217,6.1337,6.1341,6.1238,6.1242,6.1245,6.1247,0,0,0,0,0,0,0,6.0939,6.0955,6.1114,6.1069,6.107,6.1056,6.1065,6.1145,6.1162,6.1104,6.11,6.1112,6.1183,6.121,6.1218,6.1343,6.1237,6.1244,6.1248,6.1251,6.1563,6.1567,0,0,0,0,0,0,6.0934,6.095,6.1112,6.1117,6.0997,6.1063,6.1073,6.1115,6.1161,6.1165,6.1115,6.1109,6.12,6.121,6.1221,6.1362,6.1245,6.1251,6.1256,6.1559,6.1564,6.1568,0,0,0,0,0,0,6.0929,6.0949,6.1108,6.1033,6.1052,6.1071,6.1117,6.1118,6.1146,6.117,6.1172,6.114,6.1197,6.1212,6.1306,6.1364,6.1255,6.1261,6.1554,6.156,6.1566,6.1644,0,0,0,0,0,0,6.0923,6.0948,6.0994,6.1034,6.1056,6.1192,6.1121,6.1123,6.1159,6.1152,6.1194,6.1198,6.1196,6.1296,6.1313,6.1372,6.1267,6.1549,6.1557,6.1564,6.1636,6.1651,6.1665,0,0,0,0,0,6.0916,6.1011,6.0996,6.1016,6.1114,6.1196,6.1208,6.1205,6.1164,6.1209,6.1224,6.1196,6.1355,6.1306,6.1325,6.1387,6.1545,6.1555,6.1563,6.1629,6.1648,6.1665,0,0,0,0,0,0,6.0976,6.1016,6.1,6.1112,6.1151,6.1187,6.1245,6.1226,6.1276,6.1268,6.1261,6.127,6.1368,6.1387,6.1331,6.1502,6.1443,6.1457,6.1487,6.1505,6.152,6.1513,6.1272,0,0,0,0,0,6.1002,6.1067,6.1098,6.1194,6.1214,6.1226,6.1262,6.1256,6.1295,6.1311,6.1333,6.1372,6.143,6.1469,6.1524,6.1638,6.1646,6.169,6.1704,6.1716,6.1728,6.1789,6.1808,6.1598,6.1598,6.1598,0,0,6.1058,6.1088,6.1128,6.1206,6.1236,6.1301,6.1241,6.1312,6.136,6.1322,6.1412,6.143,6.1472,6.1577,6.1624,6.1595,6.1788,6.1728,6.1737,6.1742,6.18,6.182,6.1838,6.1604,6.1603,6.1602,0,0,6.1191,6.1221,6.1304,6.1335,6.138,6.1388,6.1408,6.1447,6.1458,6.1549,6.1521,6.1577,6.1678,6.1709,6.1738,6.1882,6.1858,6.19,6.1976,6.2036,6.2052,6.2067,6.2118,6.2136,6.1912,6.1912,6.1912,0,6.1254,6.1352,6.1348,6.1422,6.1457,6.1426,6.1509,6.1539,6.16,6.1623,6.159,6.1716,6.1742,6.1853,6.1889,6.1913,6.1935,6.1895,6.205,6.2065,6.2079,6.2127,6.2146,6.1917,6.1916,6.1916,6.1915,0,6.1426,6.1495,6.1556,6.1617,6.1658,6.1736,6.1742,6.1784,6.1775,6.1785,6.1878,6.1908,6.1968,6.1994,6.1985,6.2104,6.2084,6.2051,6.1992,6.2104,6.2149,6.2167,6.1924,6.1922,6.1921,6.1919,0,0,6.1601,6.1659,6.1681,6.1708,6.1756,6.1808,6.1884,6.1944,6.198,6.2022,6.2085,6.2171,6.214,6.2173,6.2167,6.2219,6.2331,6.218,6.218,6.2206,6.2463,6.2487,6.2509,6.2315,6.2319,6.2321,6.2459,0,6.1738,6.1872,6.187,6.1994,6.2057,6.2028,6.2094,6.2129,6.2141,6.2194,6.2206,6.2267,6.2223,6.2242,6.2293,6.2307,6.2382,6.2297,6.2372,6.2375,6.2362,6.2533,6.2559,6.2687,6.2477,6.248,6.2482,0,6.1916,6.1965,6.2096,6.2134,6.216,6.2219,6.2274,6.2326,6.2365,6.2369,6.2406,6.2392,6.2467,6.2406,6.2508,6.245,6.2481,6.2492,6.2497,6.2504,6.2435,6.2544,6.2728,6.2748,6.251,6.2508,6.2506,0,6.203,6.2129,6.222,6.2243,6.229,6.2332,6.2354,6.2389,6.2425,6.2472,6.2495,6.255,6.258,6.2622,6.2622,6.2577,6.2726,6.2664,6.273,6.2731,6.2763,6.2761,6.2955,6.2783,6.2783,6.2782,6.2782,0,6.2182,6.2263,6.2271,6.2327,6.2416,6.2412,6.25,6.2517,6.2549,6.2606,6.2584,6.2638,6.2635,6.2689,6.2689,6.2774,6.2788,6.2792,6.2791,6.2795,6.2794,6.2814,6.2805,6.2788,6.2786,6.2785,6.2785,0,6.2325,6.2334,6.2431,6.2467,6.2478,6.2542,6.2572,6.2624,6.2634,6.2706,6.2723,6.2737,6.28,6.2804,6.2876,6.2876,6.2979,6.2968,6.2966,6.2964,6.303,6.3024,6.3244,6.3272,6.3082,6.3084,6.3085,0,6.2422,6.2484,6.2527,6.2564,6.2588,6.2648,6.2685,6.2683,6.2722,6.2771,6.2817,6.2877,6.2926,6.3027,6.3043,6.3097,6.3088,6.3161,6.3096,6.3096,6.3088,6.3085,6.309,6.3174,6.3176,6.3177,6.3179,0,6.2593,6.2594,6.2649,6.2705,6.275,6.2794,6.2834,6.2866,6.2868,6.2913,6.2977,6.3015,6.3089,6.3149,6.3202,6.3222,6.3201,6.3199,6.3217,6.3221,6.3217,6.322,6.3001,6.3194,6.3193,6.3192,6.3191,6.319,6.2716,6.2769,6.2807,6.2868,6.2899,6.2937,6.2988,6.3004,6.3058,6.3119,6.3114,6.3185,6.3221,6.329,6.3314,6.3369,6.3344,6.337,6.3377,6.3383,6.339,6.3209,6.3378,6.3378,6.3378,6.3377,6.3377,0,6.2885,6.2908,6.2965,6.3023,6.3071,6.3047,6.3091,6.3132,6.3195,6.3231,6.328,6.3353,6.3411,6.3431,6.3487,6.3527,6.3518,6.3542,6.3538,6.3543,6.3409,6.3388,6.3547,6.3547,6.3547,6.3547,6.3547,6.3547,6.2979,6.3067,6.3073,6.3176,6.3198,6.3268,6.3295,6.333,6.3358,6.3442,6.349,6.3503,6.3533,6.3591,6.3642,6.3646,6.3668,6.3695,6.3695,6.357,6.3553,6.3536,6.3516,6.37,6.37,6.3825,6.3826,6.3827]}]]